contact:dominique.lefevre@mio.osupytheas.fr, maurice.libes@osupytheas.fr, didier.mallarino@osupytheas.fr
Project:EMSO http://www.emso-fr.org/EMSO-France
Depth: 2436.0 m
Title:EMSO Ligure Ouest : Data MII capteur AQUADOPP
Date,Latitude,Longitude,X_East,Y_North,Z_Up,Amplitude_X,Amplitude_Y,Amplitude_Z,Batterie,SoundSpeed,Heading,Pitch,Roll,Pressure,TIS,Speed,Direction
, degrees North, degrees East, m.s-1, m.s-1,m.s-1, 1, 1, 1, Volt, m.s-1, degree, degree, degree, dbar, degree_C, m.s-1, degree
2024-04-17T00:04:03,42.805,6.029,0.017,-0.018,0.04,103.0,103.0,100.0,13.4,1505.2,0.5,-0.7,1.8,2471.639,13.28,0.024,136.6
2024-04-17T00:07:03,42.805,6.029,0.012,-0.049,0.029,102.0,104.0,100.0,13.4,1505.2,9.9,-0.8,1.8,2471.615,13.28,0.05,166.2
2024-04-17T00:10:03,42.805,6.029,0.038,-0.032,0.027,104.0,104.0,100.0,13.3,1505.2,352.5,-0.8,1.8,2471.579,13.29,0.049,130.1
2024-04-17T00:13:03,42.805,6.029,0.03,-0.031,0.004,101.0,104.0,102.0,13.4,1505.2,357.7,-0.8,1.8,2471.573,13.29,0.043,135.9
2024-04-17T00:16:03,42.805,6.029,0.038,-0.02,0.057,102.0,105.0,100.0,13.4,1505.2,353.0,-0.8,1.8,2471.588,13.29,0.042,117.8
2024-04-17T00:19:03,42.805,6.029,0.027,-0.045,0.008,103.0,104.0,101.0,13.3,1505.2,3.2,-0.7,1.8,2471.607,13.29,0.052,149.0
2024-04-17T00:22:03,42.805,6.029,0.045,-0.033,-0.003,104.0,104.0,100.0,13.4,1505.2,8.8,-0.8,1.9,2471.63,13.29,0.055,126.3
2024-04-17T00:25:03,42.805,6.029,0.036,-0.025,-0.006,102.0,102.0,101.0,13.3,1505.2,353.4,-0.8,1.8,2471.592,13.29,0.043,124.8
2024-04-17T00:28:03,42.805,6.029,0.029,-0.052,0.016,103.0,103.0,101.0,13.3,1505.2,4.7,-0.7,1.8,2471.573,13.29,0.059,150.9
2024-04-17T00:31:03,42.805,6.029,0.013,-0.032,0.012,102.0,104.0,100.0,13.4,1505.2,6.9,-0.7,1.8,2471.6,13.29,0.034,157.9
2024-04-17T00:34:03,42.805,6.029,0.039,-0.073,-0.015,102.0,104.0,100.0,13.4,1505.2,355.9,-0.8,1.8,2471.597,13.29,0.082,151.9
2024-04-17T00:37:03,42.805,6.029,-0.002,-0.047,0.001,102.0,103.0,101.0,13.3,1505.2,5.5,-0.8,1.8,2471.62,13.29,0.047,182.4
2024-04-17T00:40:03,42.805,6.029,0.006,-0.022,0.014,102.0,104.0,101.0,13.4,1505.2,10.0,-0.7,1.8,2471.574,13.29,0.022,164.7
2024-04-17T00:43:03,42.805,6.029,0.021,-0.034,-0.008,102.0,102.0,100.0,13.3,1505.2,4.1,-0.7,1.8,2471.598,13.29,0.039,148.3
2024-04-17T00:46:03,42.805,6.029,0.04,-0.035,0.023,103.0,103.0,101.0,13.4,1505.2,3.9,-0.7,1.8,2471.604,13.29,0.053,131.2
2024-04-17T00:49:03,42.805,6.029,0.004,-0.039,-0.003,104.0,103.0,100.0,13.4,1505.2,0.5,-0.8,1.8,2471.627,13.29,0.039,174.1
2024-04-17T00:52:03,42.805,6.029,0.021,-0.014,0.037,103.0,104.0,100.0,13.3,1505.2,8.4,-0.8,1.8,2471.604,13.29,0.025,123.7
2024-04-17T00:55:03,42.805,6.029,0.027,-0.014,0.004,102.0,104.0,101.0,13.4,1505.2,353.1,-0.8,1.8,2471.581,13.29,0.03,117.4
2024-04-17T00:58:03,42.805,6.029,0.01,-0.047,-0.003,101.0,103.0,101.0,13.4,1505.2,357.1,-0.8,1.8,2471.623,13.29,0.048,168.0
2024-04-17T01:04:03,42.805,6.029,0.049,-0.056,0.0,105.0,104.0,102.0,13.3,1505.2,358.2,-0.8,1.8,2471.626,13.28,0.074,138.8
2024-04-17T01:07:03,42.805,6.029,0.035,-0.034,0.029,103.0,103.0,101.0,13.4,1505.2,2.1,-0.8,1.8,2471.634,13.29,0.048,134.2
2024-04-17T01:10:03,42.805,6.029,0.029,-0.037,0.011,104.0,103.0,101.0,13.4,1505.2,9.9,-0.8,1.8,2471.616,13.29,0.047,141.9
2024-04-17T01:13:03,42.805,6.029,0.076,-0.037,0.054,102.0,103.0,100.0,13.4,1505.2,352.6,-0.7,1.8,2471.612,13.29,0.084,116.0
2024-04-17T01:16:03,42.805,6.029,-0.004,-0.025,-0.007,103.0,102.0,100.0,13.3,1505.2,6.2,-0.7,1.9,2471.595,13.29,0.025,189.1
2024-04-17T01:19:03,42.805,6.029,0.039,-0.02,0.018,101.0,103.0,100.0,13.3,1505.2,358.8,-0.8,1.8,2471.608,13.29,0.043,117.1
2024-04-17T01:22:03,42.805,6.029,0.035,-0.029,0.003,102.0,104.0,101.0,13.4,1505.2,8.4,-0.8,1.8,2471.617,13.29,0.045,129.6
2024-04-17T01:25:03,42.805,6.029,0.047,-0.04,0.026,103.0,103.0,101.0,13.4,1505.2,355.1,-0.8,1.8,2471.603,13.29,0.061,130.4
2024-04-17T01:28:03,42.805,6.029,0.044,-0.037,0.022,102.0,103.0,100.0,13.4,1505.2,357.2,-0.8,1.8,2471.625,13.29,0.057,130.1
2024-04-17T01:31:03,42.805,6.029,0.021,-0.043,0.02,104.0,102.0,101.0,13.4,1505.2,357.6,-0.8,1.8,2471.583,13.29,0.047,154.0
2024-04-17T01:34:03,42.805,6.029,0.025,-0.031,0.013,102.0,103.0,100.0,13.4,1505.2,7.3,-0.8,1.8,2471.602,13.29,0.039,141.1
2024-04-17T01:37:03,42.805,6.029,0.012,-0.023,0.033,102.0,103.0,101.0,13.4,1505.2,354.1,-0.7,1.8,2471.63,13.29,0.025,152.4
2024-04-17T01:40:03,42.805,6.029,0.027,-0.038,0.017,102.0,102.0,101.0,13.3,1505.2,6.2,-0.8,1.8,2471.586,13.29,0.046,144.6
2024-04-17T01:43:03,42.805,6.029,-0.007,-0.036,0.023,102.0,103.0,100.0,13.4,1505.2,6.3,-0.7,1.8,2471.642,13.29,0.036,191.0
2024-04-17T01:46:03,42.805,6.029,0.065,-0.036,0.004,102.0,103.0,100.0,13.4,1505.2,4.0,-0.8,1.8,2471.629,13.29,0.074,119.0
2024-04-17T01:49:03,42.805,6.029,0.023,-0.031,0.003,101.0,103.0,101.0,13.4,1505.2,8.9,-0.8,1.8,2471.62,13.29,0.038,143.4
2024-04-17T01:52:03,42.805,6.029,0.011,-0.03,0.0,103.0,102.0,100.0,13.4,1505.2,358.2,-0.8,1.8,2471.647,13.29,0.031,159.9
2024-04-17T01:55:03,42.805,6.029,0.021,0.009,0.044,102.0,102.0,100.0,13.4,1505.2,353.0,-0.8,1.8,2471.591,13.29,0.022,66.8
2024-04-17T01:58:03,42.805,6.029,0.02,-0.05,0.012,104.0,101.0,101.0,13.4,1505.2,3.8,-0.7,1.8,2471.582,13.29,0.053,158.2
2024-04-17T02:04:03,42.805,6.029,0.039,-0.025,0.047,102.0,103.0,101.0,13.4,1505.2,354.3,-0.7,1.8,2471.678,13.28,0.046,122.7
2024-04-17T02:07:03,42.805,6.029,0.026,-0.039,-0.001,103.0,104.0,101.0,13.4,1505.2,358.8,-0.8,1.8,2471.598,13.28,0.046,146.3
2024-04-17T02:10:03,42.805,6.029,0.036,-0.028,0.042,103.0,103.0,100.0,13.4,1505.2,2.8,-0.8,1.8,2471.638,13.29,0.045,127.9
2024-04-17T02:13:03,42.805,6.029,0.021,-0.021,0.015,102.0,102.0,102.0,13.3,1505.2,352.8,-0.8,1.8,2471.623,13.29,0.029,135.0
2024-04-17T02:16:03,42.805,6.029,0.036,-0.034,-0.001,103.0,102.0,101.0,13.3,1505.2,358.8,-0.8,1.8,2471.627,13.29,0.049,133.4
2024-04-17T02:19:03,42.805,6.029,0.008,-0.029,0.013,103.0,102.0,102.0,13.4,1505.2,358.3,-0.7,1.8,2471.653,13.29,0.03,164.6
2024-04-17T02:22:03,42.805,6.029,0.023,-0.051,-0.017,104.0,103.0,101.0,13.4,1505.2,1.1,-0.7,1.8,2471.619,13.29,0.055,155.7
2024-04-17T02:25:03,42.805,6.029,0.015,-0.068,0.0,103.0,102.0,101.0,13.3,1505.2,6.5,-0.7,1.8,2471.61,13.29,0.069,167.6
2024-04-17T02:28:03,42.805,6.029,0.035,-0.047,0.024,104.0,103.0,101.0,13.3,1505.2,1.7,-0.8,1.8,2471.61,13.29,0.058,143.3
2024-04-17T02:31:03,42.805,6.029,0.029,-0.037,0.007,103.0,103.0,102.0,13.4,1505.2,356.5,-0.8,1.8,2471.638,13.29,0.047,141.9
2024-04-17T02:34:03,42.805,6.029,0.028,-0.044,0.027,103.0,103.0,101.0,13.4,1505.2,356.5,-0.8,1.8,2471.628,13.29,0.052,147.5
2024-04-17T02:37:03,42.805,6.029,0.03,-0.058,0.03,104.0,104.0,101.0,13.4,1505.2,0.5,-0.8,1.8,2471.61,13.29,0.065,152.6
2024-04-17T02:40:03,42.805,6.029,0.031,-0.03,0.008,103.0,103.0,101.0,13.4,1505.2,353.7,-0.8,1.8,2471.597,13.29,0.043,134.1
2024-04-17T02:43:03,42.805,6.029,0.001,-0.038,0.006,103.0,106.0,102.0,13.4,1505.2,1.6,-0.8,1.8,2471.591,13.29,0.038,178.5
2024-04-17T02:46:03,42.805,6.029,0.017,-0.049,0.0,103.0,105.0,100.0,13.4,1505.2,4.7,-0.8,1.8,2471.619,13.29,0.051,160.9
2024-04-17T02:49:03,42.805,6.029,0.019,-0.04,-0.009,105.0,102.0,103.0,13.4,1505.2,352.9,-0.8,1.8,2471.621,13.29,0.044,154.6
2024-04-17T02:52:03,42.805,6.029,0.016,-0.028,-0.004,102.0,103.0,102.0,13.4,1505.2,1.6,-0.7,1.8,2471.629,13.29,0.032,150.3
2024-04-17T02:55:03,42.805,6.029,0.037,-0.034,0.012,103.0,104.0,102.0,13.4,1505.2,0.0,-0.8,1.8,2471.596,13.29,0.05,132.6
2024-04-17T02:58:03,42.805,6.029,0.011,-0.04,-0.004,104.0,105.0,100.0,13.3,1505.2,9.8,-0.7,1.8,2471.605,13.29,0.041,164.6
2024-04-17T03:04:03,42.805,6.029,0.013,-0.051,-0.003,104.0,104.0,101.0,13.3,1505.2,5.0,-0.7,1.8,2471.625,13.28,0.052,165.7
2024-04-17T03:07:03,42.805,6.029,0.005,-0.046,0.009,104.0,104.0,102.0,13.4,1505.2,5.8,-0.7,1.8,2471.653,13.29,0.046,173.8
2024-04-17T03:10:03,42.805,6.029,0.005,-0.042,-0.002,104.0,104.0,101.0,13.3,1505.2,6.3,-0.8,1.8,2471.665,13.29,0.042,173.2
2024-04-17T03:13:03,42.805,6.029,0.029,-0.035,0.034,104.0,103.0,101.0,13.4,1505.2,353.5,-0.8,1.8,2471.612,13.29,0.045,140.4
2024-04-17T03:16:03,42.805,6.029,0.006,-0.014,-0.004,104.0,103.0,102.0,13.3,1505.2,4.5,-0.8,1.8,2471.612,13.29,0.015,156.8
2024-04-17T03:19:05,42.805,6.029,0.016,-0.019,-0.011,105.0,105.0,103.0,13.4,1505.2,9.4,-0.8,1.8,2471.633,13.29,0.024,139.9
2024-04-17T03:22:03,42.805,6.029,0.054,-0.041,0.003,105.0,105.0,103.0,13.4,1505.2,0.0,-0.8,1.8,2471.637,13.29,0.067,127.2
2024-04-17T03:25:03,42.805,6.029,0.026,-0.026,0.011,106.0,104.0,103.0,13.4,1505.2,6.0,-0.8,1.8,2471.589,13.29,0.036,135.0
2024-04-17T03:28:03,42.805,6.029,0.025,-0.031,0.033,106.0,105.0,102.0,13.4,1505.2,352.1,-0.7,1.8,2471.622,13.29,0.039,141.1
2024-04-17T03:31:03,42.805,6.029,0.02,-0.053,0.011,106.0,105.0,102.0,13.4,1505.2,352.7,-0.7,1.8,2471.586,13.29,0.056,159.3
2024-04-17T03:34:03,42.805,6.029,0.008,-0.024,0.008,107.0,106.0,102.0,13.4,1505.2,0.0,-0.8,1.8,2471.616,13.29,0.025,161.6
2024-04-17T03:37:03,42.805,6.029,0.012,-0.031,0.012,106.0,105.0,102.0,13.4,1505.2,6.4,-0.8,1.8,2471.609,13.29,0.033,158.8
2024-04-17T03:40:03,42.805,6.029,0.038,-0.019,-0.003,106.0,105.0,102.0,13.4,1505.2,1.2,-0.8,1.8,2471.607,13.29,0.042,116.6
2024-04-17T03:43:03,42.805,6.029,0.019,-0.034,-0.008,103.0,105.0,103.0,13.3,1505.2,6.3,-0.7,1.8,2471.619,13.29,0.038,150.8
2024-04-17T03:46:03,42.805,6.029,0.033,-0.023,0.011,106.0,105.0,102.0,13.4,1505.2,8.5,-0.8,1.8,2471.573,13.29,0.04,124.9
2024-04-17T03:49:03,42.805,6.029,0.018,-0.027,0.007,106.0,108.0,103.0,13.3,1505.2,355.8,-0.7,1.8,2471.589,13.29,0.032,146.3
2024-04-17T03:52:03,42.805,6.029,0.016,-0.037,0.022,108.0,107.0,103.0,13.4,1505.2,358.3,-0.8,1.8,2471.583,13.29,0.04,156.6
2024-04-17T03:55:03,42.805,6.029,-0.006,-0.041,0.026,106.0,106.0,104.0,13.3,1505.2,9.3,-0.8,1.8,2471.62,13.29,0.041,188.3
2024-04-17T03:58:03,42.805,6.029,0.014,-0.043,0.017,106.0,106.0,103.0,13.4,1505.2,8.1,-0.7,1.8,2471.623,13.29,0.045,162.0
2024-04-17T04:04:03,42.805,6.029,0.025,-0.027,0.021,107.0,106.0,103.0,13.4,1505.2,0.5,-0.7,1.8,2471.619,13.28,0.036,137.2
2024-04-17T04:07:03,42.805,6.029,0.018,-0.001,0.046,107.0,106.0,102.0,13.4,1505.2,359.4,-0.8,1.8,2471.65,13.29,0.018,93.2
2024-04-17T04:10:03,42.805,6.029,0.009,-0.01,0.011,107.0,109.0,104.0,13.4,1505.2,3.7,-0.8,1.8,2471.63,13.29,0.013,138.0
2024-04-17T04:13:03,42.805,6.029,0.023,-0.032,-0.003,107.0,106.0,103.0,13.4,1505.2,355.9,-0.8,1.8,2471.604,13.29,0.039,144.3
2024-04-17T04:16:04,42.805,6.029,0.025,-0.032,0.019,106.0,106.0,103.0,13.3,1505.2,4.4,-0.7,1.9,2471.634,13.29,0.04,142.0
2024-04-17T04:19:03,42.805,6.029,0.022,-0.043,-0.002,107.0,106.0,103.0,13.3,1505.2,358.3,-0.8,1.8,2471.615,13.29,0.048,152.9
2024-04-17T04:22:03,42.805,6.029,0.014,-0.043,-0.001,107.0,107.0,102.0,13.4,1505.2,9.7,-0.8,1.8,2471.615,13.29,0.045,162.0
2024-04-17T04:25:03,42.805,6.029,0.021,-0.011,0.001,106.0,107.0,104.0,13.4,1505.2,352.9,-0.8,1.8,2471.61,13.29,0.023,117.6
2024-04-17T04:28:03,42.805,6.029,0.042,-0.033,0.009,107.0,106.0,104.0,13.4,1505.2,1.0,-0.8,1.8,2471.619,13.29,0.053,128.2
2024-04-17T04:31:03,42.805,6.029,0.028,-0.026,0.001,106.0,108.0,105.0,13.4,1505.2,0.0,-0.7,1.8,2471.621,13.29,0.038,132.9
2024-04-17T04:34:03,42.805,6.029,0.006,-0.038,-0.011,107.0,107.0,104.0,13.4,1505.2,3.4,-0.7,1.8,2471.629,13.29,0.038,171.0
2024-04-17T04:37:03,42.805,6.029,0.022,-0.04,0.024,108.0,107.0,103.0,13.3,1505.2,7.9,-0.8,1.8,2471.617,13.29,0.045,151.2
2024-04-17T04:40:03,42.805,6.029,0.03,-0.032,-0.008,107.0,106.0,105.0,13.4,1505.2,353.2,-0.8,1.8,2471.624,13.29,0.043,136.9
2024-04-17T04:43:03,42.805,6.029,0.043,-0.056,0.023,108.0,107.0,104.0,13.4,1505.2,356.5,-0.8,1.8,2471.639,13.29,0.07,142.5
2024-04-17T04:46:03,42.805,6.029,0.027,-0.047,0.025,108.0,108.0,102.0,13.3,1505.2,4.6,-0.7,1.8,2471.656,13.29,0.054,150.1
2024-04-17T04:49:03,42.805,6.029,0.023,-0.014,-0.012,107.0,107.0,104.0,13.4,1505.2,354.6,-0.7,1.8,2471.618,13.29,0.026,121.3
2024-04-17T04:52:03,42.805,6.029,0.032,-0.029,-0.009,108.0,107.0,104.0,13.4,1505.2,0.5,-0.7,1.8,2471.597,13.29,0.043,132.2
2024-04-17T04:55:03,42.805,6.029,0.02,-0.047,-0.016,107.0,107.0,104.0,13.4,1505.2,7.7,-0.8,1.8,2471.618,13.29,0.051,157.0
2024-04-17T04:58:03,42.805,6.029,0.023,-0.036,0.011,108.0,107.0,104.0,13.4,1505.2,9.8,-0.8,1.8,2471.593,13.29,0.042,147.4
2024-04-17T05:04:03,42.805,6.029,0.019,-0.031,-0.003,108.0,108.0,104.0,13.4,1505.2,357.1,-0.7,1.8,2471.67,13.28,0.036,148.5
2024-04-17T05:07:03,42.805,6.029,0.011,-0.027,0.021,108.0,109.0,104.0,13.4,1505.2,4.2,-0.7,1.8,2471.632,13.29,0.029,157.8
2024-04-17T05:10:03,42.805,6.029,0.026,-0.023,0.002,108.0,108.0,104.0,13.3,1505.2,354.6,-0.8,1.8,2471.622,13.29,0.034,131.5
2024-04-17T05:13:03,42.805,6.029,-0.002,-0.015,0.007,107.0,107.0,104.0,13.4,1505.2,0.0,-0.8,1.8,2471.591,13.29,0.015,187.6
2024-04-17T05:16:03,42.805,6.029,0.006,-0.017,0.037,108.0,108.0,104.0,13.4,1505.2,3.4,-0.8,1.8,2471.624,13.29,0.018,160.6
2024-04-17T05:19:03,42.805,6.029,0.026,-0.04,0.01,107.0,107.0,104.0,13.4,1505.2,9.0,-0.8,1.8,2471.614,13.29,0.047,147.0
2024-04-17T05:22:03,42.805,6.029,0.025,-0.032,0.028,108.0,108.0,103.0,13.4,1505.2,7.4,-0.7,1.8,2471.631,13.29,0.04,142.0
2024-04-17T05:25:03,42.805,6.029,0.025,-0.028,0.009,108.0,107.0,105.0,13.4,1505.2,1.0,-0.8,1.8,2471.619,13.29,0.037,138.2
2024-04-17T05:28:03,42.805,6.029,0.03,-0.032,0.001,106.0,107.0,104.0,13.4,1505.2,2.1,-0.8,1.8,2471.622,13.29,0.043,136.9
2024-04-17T05:31:03,42.805,6.029,0.022,-0.022,0.003,107.0,106.0,104.0,13.3,1505.2,2.1,-0.7,1.8,2471.618,13.29,0.031,135.0
2024-04-17T05:34:03,42.805,6.029,0.029,-0.029,0.005,107.0,107.0,104.0,13.4,1505.2,0.5,-0.7,1.8,2471.595,13.29,0.041,135.0
2024-04-17T05:37:03,42.805,6.029,0.029,-0.052,-0.017,106.0,107.0,103.0,13.4,1505.2,9.4,-0.7,1.8,2471.626,13.29,0.059,150.9
2024-04-17T05:40:03,42.805,6.029,0.015,-0.019,-0.014,106.0,106.0,104.0,13.4,1505.2,354.8,-0.7,1.8,2471.576,13.29,0.024,141.7
2024-04-17T05:43:03,42.805,6.029,0.016,-0.016,0.03,108.0,106.0,104.0,13.4,1505.2,5.0,-0.8,1.8,2471.603,13.29,0.022,135.0
2024-04-17T05:46:03,42.805,6.029,0.019,-0.013,0.013,108.0,107.0,102.0,13.3,1505.2,9.7,-0.8,1.8,2471.583,13.29,0.023,124.4
2024-04-17T05:49:03,42.805,6.029,0.02,-0.025,-0.001,106.0,107.0,104.0,13.4,1505.2,351.5,-0.8,1.8,2471.601,13.29,0.032,141.3
2024-04-17T05:52:03,42.805,6.029,0.001,-0.012,0.014,107.0,106.0,103.0,13.4,1505.2,1.0,-0.7,1.8,2471.588,13.29,0.012,175.2
2024-04-17T05:55:03,42.805,6.029,0.023,-0.026,-0.005,107.0,107.0,103.0,13.4,1505.2,4.6,-0.8,1.8,2471.612,13.29,0.034,138.5
2024-04-17T05:58:03,42.805,6.029,0.046,-0.043,0.031,105.0,107.0,104.0,13.4,1505.2,1.7,-0.7,1.8,2471.573,13.29,0.062,133.1
2024-04-17T06:04:03,42.805,6.029,0.028,-0.028,-0.022,106.0,107.0,104.0,13.4,1505.2,353.1,-0.8,1.8,2471.627,13.28,0.039,135.0
2024-04-17T06:07:03,42.805,6.029,0.035,-0.013,0.029,108.0,108.0,103.0,13.3,1505.2,5.1,-0.8,1.8,2471.619,13.29,0.037,110.4
2024-04-17T06:10:03,42.805,6.029,0.029,-0.033,0.028,107.0,108.0,104.0,13.4,1505.2,6.9,-0.8,1.8,2471.615,13.29,0.043,138.7
2024-04-17T06:13:03,42.805,6.029,0.021,-0.023,0.028,107.0,107.0,104.0,13.4,1505.2,7.0,-0.8,1.8,2471.591,13.29,0.031,137.6
2024-04-17T06:16:03,42.805,6.029,0.018,-0.028,0.022,108.0,107.0,104.0,13.3,1505.2,5.2,-0.8,1.8,2471.597,13.29,0.033,147.3
2024-04-17T06:19:03,42.805,6.029,0.039,-0.041,0.007,108.0,107.0,104.0,13.4,1505.2,4.1,-0.8,1.8,2471.608,13.29,0.056,136.4
2024-04-17T06:22:03,42.805,6.029,0.022,-0.031,-0.006,107.0,106.0,105.0,13.3,1505.2,5.1,-0.7,1.8,2471.588,13.29,0.038,144.6
2024-04-17T06:25:03,42.805,6.029,0.023,-0.018,0.0,108.0,108.0,103.0,13.3,1505.2,353.4,-0.7,1.8,2471.59,13.29,0.029,128.0
2024-04-17T06:28:03,42.805,6.029,0.03,-0.033,0.02,107.0,107.0,103.0,13.3,1505.2,6.1,-0.8,1.9,2471.598,13.29,0.044,137.7
2024-04-17T06:31:03,42.805,6.029,0.029,-0.011,-0.014,107.0,106.0,104.0,13.3,1505.2,8.9,-0.8,1.8,2471.567,13.29,0.031,110.8
2024-04-17T06:34:03,42.805,6.029,0.045,-0.029,0.001,106.0,108.0,104.0,13.4,1505.2,0.5,-0.8,1.8,2471.581,13.29,0.053,122.8
2024-04-17T06:37:03,42.805,6.029,0.022,-0.027,0.004,107.0,107.0,105.0,13.4,1505.2,3.5,-0.8,1.8,2471.563,13.29,0.034,140.8
2024-04-17T06:40:03,42.805,6.029,0.029,-0.036,0.026,106.0,107.0,103.0,13.4,1505.2,5.3,-0.8,1.8,2471.557,13.29,0.046,141.1
2024-04-17T06:43:03,42.805,6.029,0.03,-0.021,0.016,107.0,107.0,104.0,13.3,1505.2,354.2,-0.8,1.8,2471.565,13.29,0.036,125.0
2024-04-17T06:46:03,42.805,6.029,0.032,-0.018,-0.003,107.0,106.0,103.0,13.4,1505.2,4.8,-0.7,1.8,2471.569,13.29,0.036,119.4
2024-04-17T06:49:03,42.805,6.029,0.023,-0.039,0.027,107.0,107.0,104.0,13.4,1505.2,357.6,-0.7,1.8,2471.541,13.29,0.045,149.5
2024-04-17T06:52:03,42.805,6.029,0.016,-0.017,-0.022,107.0,106.0,103.0,13.3,1505.2,6.9,-0.8,1.8,2471.564,13.29,0.023,136.7
2024-04-17T06:55:03,42.805,6.029,0.021,-0.031,0.039,106.0,106.0,103.0,13.4,1505.2,4.7,-0.8,1.8,2471.541,13.29,0.037,145.9
2024-04-17T06:58:03,42.805,6.029,0.033,-0.02,-0.01,106.0,107.0,103.0,13.4,1505.2,354.0,-0.7,1.8,2471.564,13.29,0.038,121.2
2024-04-17T07:04:03,42.805,6.029,0.041,-0.028,-0.026,107.0,107.0,104.0,13.4,1505.2,355.8,-0.8,1.8,2471.566,13.28,0.049,124.3
2024-04-17T07:07:03,42.805,6.029,0.024,-0.015,-0.007,107.0,106.0,103.0,13.4,1505.2,358.3,-0.8,1.8,2471.564,13.29,0.028,122.0
2024-04-17T07:10:03,42.805,6.029,0.034,-0.012,0.018,106.0,107.0,103.0,13.3,1505.2,8.9,-0.8,1.8,2471.581,13.29,0.036,109.4
2024-04-17T07:13:03,42.805,6.029,0.027,-0.003,0.026,105.0,105.0,103.0,13.4,1505.2,2.3,-0.8,1.8,2471.585,13.29,0.027,96.3
2024-04-17T07:16:03,42.805,6.029,0.003,-0.018,-0.015,105.0,106.0,104.0,13.4,1505.2,4.6,-0.8,1.8,2471.553,13.29,0.018,170.5
2024-04-17T07:19:03,42.805,6.029,0.031,-0.017,0.005,105.0,107.0,102.0,13.3,1505.2,353.0,-0.8,1.8,2471.58,13.29,0.035,118.7
2024-04-17T07:22:03,42.805,6.029,0.042,-0.047,0.025,106.0,106.0,103.0,13.4,1505.2,4.7,-0.8,1.8,2471.535,13.29,0.063,138.2
2024-04-17T07:25:03,42.805,6.029,0.038,-0.033,0.002,106.0,107.0,104.0,13.4,1505.2,5.3,-0.8,1.8,2471.546,13.29,0.05,131.0
2024-04-17T07:28:03,42.805,6.029,0.037,-0.02,0.016,107.0,107.0,103.0,13.4,1505.2,3.1,-0.7,1.8,2471.527,13.29,0.042,118.4
2024-04-17T07:31:03,42.805,6.029,0.023,-0.024,0.017,106.0,107.0,103.0,13.3,1505.2,4.6,-0.8,1.8,2471.545,13.29,0.033,136.2
2024-04-17T07:34:03,42.805,6.029,0.024,-0.027,0.026,105.0,106.0,103.0,13.4,1505.2,0.5,-0.8,1.8,2471.543,13.29,0.036,138.4
2024-04-17T07:37:03,42.805,6.029,0.016,-0.019,0.008,106.0,107.0,102.0,13.3,1505.2,358.4,-0.7,1.8,2471.514,13.29,0.024,139.9
2024-04-17T07:40:03,42.805,6.029,0.022,-0.029,0.012,105.0,105.0,102.0,13.4,1505.2,5.0,-0.8,1.8,2471.522,13.29,0.036,142.8
2024-04-17T07:43:03,42.805,6.029,0.025,-0.032,0.039,106.0,107.0,103.0,13.4,1505.2,9.3,-0.8,1.8,2471.54,13.29,0.04,142.0
2024-04-17T07:46:03,42.805,6.029,0.02,-0.007,0.004,105.0,106.0,103.0,13.4,1505.2,354.8,-0.8,1.8,2471.532,13.29,0.021,109.3
2024-04-17T07:49:03,42.805,6.029,0.025,-0.022,-0.013,105.0,107.0,104.0,13.4,1505.2,1.0,-0.8,1.8,2471.549,13.29,0.033,131.3
2024-04-17T07:52:03,42.805,6.029,0.032,-0.037,-0.019,106.0,106.0,102.0,13.4,1505.2,8.6,-0.7,1.8,2471.55,13.29,0.048,139.1
2024-04-17T07:55:03,42.805,6.029,0.045,0.0,0.045,104.0,108.0,101.0,13.4,1505.2,3.5,-0.8,1.8,2471.547,13.29,0.045,90.0
2024-04-17T07:58:03,42.805,6.029,0.007,-0.024,-0.016,105.0,105.0,103.0,13.3,1505.2,4.7,-0.8,1.8,2471.464,13.29,0.025,163.7
2024-04-17T08:04:03,42.805,6.029,0.029,-0.018,0.018,106.0,107.0,103.0,13.4,1505.2,359.4,-0.8,1.8,2471.519,13.28,0.034,121.8
2024-04-17T08:07:03,42.805,6.029,0.021,-0.028,0.028,106.0,106.0,102.0,13.4,1505.2,358.3,-0.8,1.8,2471.532,13.29,0.035,143.1
2024-04-17T08:10:03,42.805,6.029,-0.008,-0.016,-0.008,106.0,106.0,103.0,13.4,1505.2,6.9,-0.8,1.8,2471.503,13.29,0.017,206.6
2024-04-17T08:13:03,42.805,6.029,0.017,-0.021,0.01,105.0,105.0,103.0,13.4,1505.2,355.9,-0.7,1.8,2471.506,13.29,0.027,141.0
2024-04-17T08:16:03,42.805,6.029,0.02,-0.013,0.014,106.0,107.0,103.0,13.4,1505.2,358.3,-0.8,1.8,2471.526,13.29,0.023,123.0
2024-04-17T08:19:03,42.805,6.029,0.042,-0.031,0.016,106.0,106.0,104.0,13.4,1505.2,7.9,-0.7,1.8,2471.477,13.29,0.052,126.4
2024-04-17T08:22:03,42.805,6.029,0.036,0.0,-0.004,105.0,106.0,103.0,13.3,1505.2,353.7,-0.7,1.8,2471.551,13.29,0.036,90.0
2024-04-17T08:25:03,42.805,6.029,0.025,-0.031,0.02,105.0,106.0,102.0,13.3,1505.2,2.1,-0.8,1.8,2471.498,13.29,0.039,141.1
2024-04-17T08:28:03,42.805,6.029,0.062,-0.034,0.009,105.0,106.0,102.0,13.4,1505.2,358.2,-0.8,1.8,2471.508,13.29,0.07,118.7
2024-04-17T08:31:03,42.805,6.029,0.008,-0.044,-0.004,105.0,105.0,102.0,13.4,1505.2,3.6,-0.7,1.8,2471.513,13.29,0.044,169.7
2024-04-17T08:34:03,42.805,6.029,0.031,-0.032,-0.023,104.0,107.0,103.0,13.3,1505.2,353.0,-0.7,1.8,2471.478,13.29,0.044,135.9
2024-04-17T08:37:03,42.805,6.029,0.022,-0.023,0.0,106.0,105.0,103.0,13.4,1505.2,0.5,-0.8,1.8,2471.502,13.29,0.031,136.3
2024-04-17T08:40:03,42.805,6.029,0.04,-0.04,0.019,105.0,106.0,102.0,13.3,1505.2,356.6,-0.7,1.8,2471.511,13.29,0.056,135.0
2024-04-17T08:43:03,42.805,6.029,0.033,-0.033,0.045,104.0,106.0,104.0,13.4,1505.2,358.4,-0.8,1.8,2471.487,13.29,0.046,135.0
2024-04-17T08:46:03,42.805,6.029,0.018,-0.016,0.019,105.0,106.0,103.0,13.3,1505.2,0.0,-0.8,1.8,2471.475,13.29,0.024,131.6
2024-04-17T08:49:03,42.805,6.029,0.028,-0.022,0.004,105.0,106.0,102.0,13.4,1505.2,357.8,-0.8,1.8,2471.514,13.29,0.035,128.2
2024-04-17T08:52:03,42.805,6.029,0.023,-0.017,0.031,105.0,106.0,103.0,13.4,1505.2,4.6,-0.7,1.8,2471.526,13.29,0.028,126.5
2024-04-17T08:55:03,42.805,6.029,0.018,-0.033,-0.007,106.0,106.0,102.0,13.3,1505.2,4.7,-0.8,1.8,2471.476,13.29,0.037,151.4
2024-04-17T08:58:03,42.805,6.029,0.035,-0.008,-0.011,105.0,105.0,102.0,13.4,1505.2,358.9,-0.8,1.8,2471.518,13.29,0.035,102.9
2024-04-17T09:04:03,42.805,6.029,0.028,-0.039,-0.008,105.0,108.0,102.0,13.4,1505.2,8.9,-0.8,1.8,2471.533,13.28,0.048,144.3
2024-04-17T09:07:03,42.805,6.029,0.039,0.0,0.016,105.0,107.0,101.0,13.4,1505.2,352.1,-0.8,1.8,2471.522,13.29,0.039,90.0
2024-04-17T09:10:03,42.805,6.029,0.037,-0.014,0.039,105.0,106.0,103.0,13.4,1505.2,358.8,-0.7,1.8,2471.517,13.29,0.039,110.7
2024-04-17T09:13:03,42.805,6.029,0.043,-0.006,0.023,105.0,106.0,103.0,13.4,1505.2,352.8,-0.7,1.8,2471.513,13.29,0.043,97.9
2024-04-17T09:16:03,42.805,6.029,0.038,-0.022,0.019,105.0,106.0,103.0,13.4,1505.2,0.5,-0.8,1.8,2471.469,13.29,0.043,120.1
2024-04-17T09:19:03,42.805,6.029,0.039,-0.032,0.003,105.0,107.0,102.0,13.4,1505.2,0.0,-0.8,1.8,2471.476,13.29,0.05,129.4
2024-04-17T09:22:03,42.805,6.029,0.05,-0.021,0.024,106.0,107.0,103.0,13.4,1505.2,358.3,-0.8,1.8,2471.461,13.29,0.054,112.8
2024-04-17T09:25:03,42.805,6.029,0.013,-0.03,0.005,106.0,106.0,103.0,13.3,1505.2,6.0,-0.8,1.9,2471.466,13.29,0.032,156.6
2024-04-17T09:28:03,42.805,6.029,0.023,-0.033,0.029,105.0,105.0,102.0,13.3,1505.2,6.2,-0.8,1.8,2471.51,13.29,0.04,145.1
2024-04-17T09:31:03,42.805,6.029,0.029,-0.016,0.017,104.0,106.0,103.0,13.4,1505.2,3.5,-0.7,1.8,2471.496,13.29,0.033,118.9
2024-04-17T09:34:03,42.805,6.029,0.037,-0.023,0.027,104.0,105.0,104.0,13.4,1505.2,2.8,-0.8,1.8,2471.515,13.29,0.043,121.9
2024-04-17T09:37:03,42.805,6.029,0.04,-0.028,0.02,105.0,106.0,102.0,13.3,1505.2,353.7,-0.8,1.8,2471.469,13.29,0.048,125.0
2024-04-17T09:40:03,42.805,6.029,0.026,-0.018,0.02,105.0,105.0,103.0,13.3,1505.2,0.0,-0.7,1.8,2471.484,13.29,0.031,124.7
2024-04-17T09:43:03,42.805,6.029,0.009,-0.023,0.0,104.0,106.0,102.0,13.4,1505.2,357.7,-0.8,1.8,2471.485,13.29,0.024,158.6
2024-04-17T09:46:03,42.805,6.029,0.039,-0.041,0.013,104.0,106.0,102.0,13.4,1505.2,9.9,-0.7,1.8,2471.49,13.29,0.056,136.4
2024-04-17T09:49:03,42.805,6.029,0.029,-0.041,0.014,105.0,104.0,101.0,13.3,1505.2,8.8,-0.7,1.8,2471.464,13.29,0.05,144.7
2024-04-17T09:52:03,42.805,6.029,0.04,-0.043,0.001,104.0,105.0,102.0,13.3,1505.2,354.0,-0.7,1.8,2471.45,13.29,0.058,137.1
2024-04-17T09:55:03,42.805,6.029,0.048,-0.04,0.015,105.0,106.0,101.0,13.3,1505.2,3.3,-0.8,1.8,2471.466,13.29,0.062,129.8
2024-04-17T09:58:03,42.805,6.029,0.035,-0.033,0.038,105.0,106.0,102.0,13.4,1505.2,0.5,-0.8,1.8,2471.466,13.29,0.048,133.3
2024-04-17T10:04:03,42.805,6.029,0.007,-0.039,0.0,105.0,104.0,102.0,13.3,1505.2,5.5,-0.8,1.8,2471.484,13.28,0.039,169.8